Tobias Bolanos Internatio, Costa Rica

3:06 PM CST on March 25, 2017 (GMT -0600)
Tobias Bolanos International

Weather History for MRPV - May, 2014

Change the Weather History Date:

Saturday, May 10, 2014

  Actual Average Record
Temperature  
Mean Temperature 73 °F -  
Max Temperature 82 °F 80 °F 84 °F (2003)
Min Temperature 64 °F 69 °F 62 °F (2012)
Cooling Degree Days 8    
Growing Degree Days 23 (Base 50)    
Moisture  
Dew Point 66 °F    
Average Humidity 74    
Maximum Humidity 100    
Minimum Humidity 56    
Precipitation  
Precipitation 0.20 in - - ()
Sea Level Pressure  
Sea Level Pressure 29.99 in    
Wind  
Wind Speed 7 mph ()    
Max Wind Speed 16 mph    
Max Gust Speed -    
Visibility 5.7 miles    
Events Rain    
Averages and records for this station are not official NWS values.
T = Trace of Precipitation, MM = Missing Value Source: Averaged Metar Reports

Daily Weather History Graph

Daily Weather History Graph

Search for Another Location

Airport or City:

Trip Planner

Search our weather history database for the weather conditions in past years. The results will help you decide how hot, cold, wet, or windy it might be!

Date:

Astronomy

May. 10, 2014 Rise Set
Actual Time 5:16 AM CST 5:49 PM CST
Civil Twilight 4:54 AM CST 6:11 PM CST
Nautical Twilight 4:28 AM CST 6:37 PM CST
Astronomical Twilight 4:02 AM CST 7:03 PM CST
Moon 2:27 PM CST (5/10) 2:01 AM CST (5/10)
Length of Visible Light 13h 17m
Length of Day
12h 32m
Waxing Gibbous, 82% of the Moon is Illuminated
May 10
Waxing Gibbous
May 14
Full
May 21
Last Quarter
May 28
New
Jun 5
First Quarter

Hourly Weather History & Observations

Time (CST) Temp. Heat Index Dew Point Humidity Pressure Visibility Wind Dir Wind Speed Gust Speed Precip Events Conditions
6:00 AM 67 °F - 63 °F 83% 29.89 in 6 mi East 2.3 mph - -   Scattered Clouds
6:00 AM 68.0 °F - 62.6 °F 83% 30.04 in - East 2.3 mph - N/A   Clear
7:00 AM 73.4 °F - 62.6 °F 69% 30.06 in 6.2 mi East 4.6 mph - N/A   Mostly Cloudy
7:40 AM 75.2 °F - 66.2 °F 73% 30.07 in 6.2 mi WNW 6.9 mph - N/A   Scattered Clouds
8:00 AM 75.2 °F - 64.4 °F 69% 30.08 in 6.2 mi WNW 6.9 mph - N/A   Scattered Clouds
9:00 AM 76 °F - 65 °F 62% 29.92 in 6 mi West 6.9 mph - -   Scattered Clouds
9:00 AM 75.2 °F - 66.2 °F 73% 30.09 in 6.2 mi West 6.9 mph - N/A   Scattered Clouds
10:00 AM 77.0 °F - 66.2 °F 69% 30.07 in 6.2 mi West 6.9 mph - N/A   Scattered Clouds
11:00 AM 78.8 °F - 64.4 °F 61% 30.06 in 6.2 mi West 9.2 mph - N/A   Scattered Clouds
12:00 PM 79 °F - 66 °F 56% 29.86 in 6 mi West 12.7 mph - -   Scattered Clouds
12:00 PM 78.8 °F - 66.2 °F 65% 30.04 in 6.2 mi West 12.7 mph - N/A   Scattered Clouds
1:00 PM 80.6 °F 82.7 °F 66.2 °F 61% 30.01 in 6.2 mi West 12.7 mph - N/A   Scattered Clouds
2:00 PM 78.8 °F - 66.2 °F 65% 29.98 in 6.2 mi West 13.8 mph - N/A   Drizzle
3:00 PM 75 °F - 66 °F 68% 29.81 in 6 mi West 16.1 mph - - Rain Light Drizzle
3:00 PM 75.2 °F - 66.2 °F 73% 29.97 in 6.2 mi West 16.1 mph - N/A   Drizzle
4:00 PM 71.6 °F - 66.2 °F 83% 29.97 in 6.2 mi WNW 10.4 mph - N/A   Mostly Cloudy
4:31 PM 71.6 °F - 68.0 °F 88% 29.99 in 6.2 mi WNW 8.1 mph - N/A   Mostly Cloudy
5:00 PM 69.8 °F - 68.0 °F 94% 29.99 in 6.2 mi West 9.2 mph - N/A   Mostly Cloudy
5:10 PM 69.8 °F - 68.0 °F 94% 29.99 in 3.1 mi West 8.1 mph - N/A   Mostly Cloudy
6:00 PM 72 °F - 63 °F 66% 29.82 in 6 mi East 9.2 mph - -   Haze
6:00 PM 68.0 °F - 68.0 °F 100% 30.01 in 1.2 mi WNW 10.4 mph - N/A Rain Light Rain